EW5836 Weather Reports


Display with metric or nautical units.
time (UTC)temp
F
wind
direction
speed
MPH
gust
MPH
rain 1hr
in
rain 24hr
in
rain mn
in
humidity
%
barometer
mb
20260902120037 83 158 0.0 7.0 0.00 0.00 0.00 57 1019.7
20260902115542 83 163 0.0 8.0 0.00 0.00 0.00 58 1019.8
20260902115118 84 149 2.0 8.0 0.00 0.00 0.00 58 1019.9
20260902114532 83 162 0.0 12.0 0.00 0.00 0.00 58 1020.0
20260902114107 83 136 6.0 12.0 0.00 0.00 0.00 58 1020.0
20260902113547 84 172 0.0 0.0 0.00 0.00 0.00 58 1020.1
20260902113044 83 172 0.0 3.0 0.00 0.00 0.00 57 1020.1
20260902112546 83 156 0.0 4.0 0.00 0.00 0.00 59 1020.2
20260902112059 83 106 0.0 0.0 0.00 0.00 0.00 57 1020.2
20260902111532 82 77 0.0 0.0 0.00 0.00 0.00 58 1020.3
20260902111041 82 35 0.0 0.0 0.00 0.00 0.00 59 1020.4
20260902110542 82 89 0.0 7.0 0.00 0.00 0.00 60 1020.5
20260902110033 81 169 1.0 8.0 0.00 0.00 0.00 61 1020.5
20260902105538 82 146 0.0 9.0 0.00 0.00 0.00 61 1020.6
20260902105046 82 155 6.0 9.0 0.00 0.00 0.00 61 1020.6
20260902104550 81 165 1.0 8.0 0.00 0.00 0.00 61 1020.8
20260902104038 81 196 3.0 8.0 0.00 0.00 0.00 62 1020.8
20260902103540 81 182 2.0 5.0 0.00 0.00 0.00 63 1020.9
20260902103053 80 136 0.0 0.0 0.00 0.00 0.00 62 1021.0
20260902102536 80 136 0.0 0.0 0.00 0.00 0.00 63 1021.0
20260902102042 80 133 0.0 0.0 0.00 0.00 0.00 64 1021.1
20260902101545 80 129 0.0 0.0 0.00 0.00 0.00 63 1021.1
20260902101037 80 85 0.0 0.0 0.00 0.00 0.00 63 1021.1
20260902100541 80 162 0.0 5.0 0.00 0.00 0.00 63 1021.1
20260902100052 80 153 3.0 5.0 0.00 0.00 0.00 62 1021.1
20260902095534 80 213 0.0 0.0 0.00 0.00 0.00 61 1021.1
20260902095038 79 162 0.0 2.0 0.00 0.00 0.00 62 1021.2
20260902094536 79 162 0.0 6.0 0.00 0.00 0.00 62 1021.3
20260902094041 79 159 2.0 6.0 0.00 0.00 0.00 63 1021.3
20260902093542 78 160 0.0 0.0 0.00 0.00 0.00 62 1021.3
20260902093048 78 160 0.0 0.0 0.00 0.00 0.00 62 1021.2
20260902092549 78 160 0.0 3.0 0.00 0.00 0.00 61 1021.3
20260902092044 78 160 1.0 5.0 0.00 0.00 0.00 61 1021.3
20260902091545 77 175 0.0 0.0 0.00 0.00 0.00 64 1021.2
20260902091120 77 127 0.0 0.0 0.00 0.00 0.00 66 1021.3
20260902090533 76 127 0.0 0.0 0.00 0.00 0.00 65 1021.4
20260902090043 76 127 0.0 0.0 0.00 0.00 0.00 66 1021.4
20260902085546 76 127 0.0 0.0 0.00 0.00 0.00 65 1021.3
20260902085103 76 127 0.0 0.0 0.00 0.00 0.00 65 1021.3
20260902084605 76 127 0.0 0.0 0.00 0.00 0.00 67 1021.3
20260902084102 76 127 0.0 0.0 0.00 0.00 0.00 68 1021.3
20260902083540 76 127 0.0 0.0 0.00 0.00 0.00 68 1021.3
20260902083048 76 127 0.0 0.0 0.00 0.00 0.00 69 1021.2
20260902082550 76 127 0.0 0.0 0.00 0.00 0.00 69 1021.2
20260902082043 76 127 0.0 0.0 0.00 0.00 0.00 68 1021.0
20260902081545 75 127 0.0 0.0 0.00 0.00 0.00 67 1021.1
20260902081041 75 127 0.0 2.0 0.00 0.00 0.00 67 1021.1
20260902080542 75 131 0.0 2.0 0.00 0.00 0.00 66 1021.0
20260902080033 75 314 0.0 0.0 0.00 0.00 0.00 67 1021.0
20260902075552 74 314 0.0 0.0 0.00 0.00 0.00 67 1020.9
20260902075107 74 314 0.0 0.0 0.00 0.00 0.00 69 1020.9
20260902074608 73 314 0.0 0.0 0.00 0.00 0.00 68 1021.0
20260902074036 73 314 0.0 0.0 0.00 0.00 0.00 69 1020.8
20260902073540 74 314 0.0 0.0 0.00 0.00 0.00 68 1020.9
20260902073048 74 314 0.0 0.0 0.00 0.00 0.00 70 1020.9
20260902072551 74 314 0.0 0.0 0.00 0.00 0.00 72 1020.8
20260902072046 73 314 0.0 0.0 0.00 0.00 0.00 72 1020.8
20260902071546 73 315 0.0 0.0 0.00 0.00 0.00 72 1020.8
20260902071103 74 314 0.0 0.0 0.00 0.00 0.00 74 1020.7
20260902070543 75 314 0.0 0.0 0.00 0.00 0.00 74 1020.6
20260902065543 75 314 0.0 0.0 0.00 0.00 0.00 74 1020.6
20260902065041 75 314 0.0 0.0 0.00 0.00 0.00 75 1020.7
20260902064544 74 314 0.0 0.0 0.00 0.00 0.00 75 1020.7
20260902064037 73 314 0.0 0.0 0.00 0.00 0.00 75 1020.6
20260902063553 73 314 0.0 0.0 0.00 0.00 0.00 77 1020.6
20260902063038 72 314 0.0 0.0 0.00 0.00 0.00 78 1020.6
20260902062600 72 314 0.0 0.0 0.00 0.00 0.00 80 1020.4
20260902062047 72 314 0.0 0.0 0.00 0.00 0.00 80 1020.4
20260902061550 72 315 0.0 0.0 0.00 0.00 0.00 79 1020.5
20260902061045 72 314 0.0 0.0 0.00 0.00 0.00 79 1020.3
20260902060547 71 314 0.0 0.0 0.00 0.00 0.00 80 1020.4
20260902060056 71 314 0.0 0.0 0.00 0.00 0.00 80 1020.5
20260902055532 70 314 0.0 0.0 0.00 0.00 0.00 81 1020.4
20260902055039 70 314 0.0 0.0 0.00 0.00 0.00 82 1020.4
20260902054543 69 314 0.0 0.0 0.00 0.00 0.00 82 1020.2
20260902054032 69 314 0.0 0.0 0.00 0.00 0.00 82 1020.2
20260902053553 69 314 0.0 0.0 0.00 0.00 0.00 83 1020.1
20260902053040 68 315 0.0 0.0 0.00 0.00 0.00 83 1020.1
20260902052540 68 314 0.0 0.0 0.00 0.00 0.00 83 1020.1
20260902052046 68 314 0.0 0.0 0.00 0.00 0.00 83 1019.9
20260902051604 68 314 0.0 0.0 0.00 0.00 0.00 84 1019.9
20260902051054 68 314 0.0 0.0 0.00 0.00 0.00 83 1019.9
20260902050533 68 314 0.0 0.0 0.00 0.00 0.00 83 1019.9
20260902050045 68 314 0.0 0.0 0.00 0.00 0.00 83 1019.9
20260902045547 68 314 0.0 0.0 0.00 0.00 0.00 83 1020.0
20260902045038 68 314 0.0 0.0 0.00 0.00 0.00 83 1019.9
20260902044540 68 315 0.0 0.0 0.00 0.00 0.00 82 1020.0
20260902044040 69 314 0.0 0.0 0.00 0.00 0.00 83 1020.0
20260902043543 68 314 0.0 0.0 0.00 0.00 0.00 83 1020.0
20260902043056 68 315 0.0 0.0 0.00 0.00 0.00 83 1020.1
20260902042535 68 314 0.0 0.0 0.00 0.00 0.00 83 1019.9
20260902042051 68 314 0.0 0.0 0.00 0.00 0.00 83 1019.9
20260902041555 69 314 0.0 0.0 0.00 0.00 0.00 82 1019.9
20260902041045 69 314 0.0 0.0 0.00 0.00 0.00 82 1019.8
20260902040551 69 314 0.0 0.0 0.00 0.00 0.00 82 1019.8
20260902040038 69 314 0.0 0.0 0.00 0.00 0.00 82 1019.8
20260902035539 69 314 0.0 0.0 0.00 0.00 0.00 82 1019.8
20260902035048 69 314 0.0 0.0 0.00 0.00 0.00 81 1019.8
20260902034551 69 314 0.0 0.0 0.00 0.00 0.00 81 1019.8
20260902034038 70 314 0.0 0.0 0.00 0.00 0.00 81 1019.8
20260902033540 70 314 0.0 0.0 0.00 0.00 0.00 80 1019.9
20260902033050 70 314 0.0 0.0 0.00 0.00 0.00 80 1019.9
20260902032612 70 314 0.0 0.0 0.00 0.00 0.00 80 1019.8
20260902032104 70 315 0.0 0.0 0.00 0.00 0.00 80 1019.8
20260902031545 71 314 0.0 0.0 0.00 0.00 0.00 79 1019.8
20260902031034 71 314 0.0 0.0 0.00 0.00 0.00 79 1019.7
20260902030540 71 315 0.0 0.0 0.00 0.00 0.00 80 1019.7
20260902030055 71 314 0.0 0.0 0.00 0.00 0.00 79 1019.7
20260902025532 71 315 0.0 0.0 0.00 0.00 0.00 79 1019.7
20260902025041 71 314 0.0 0.0 0.00 0.00 0.00 79 1019.6
20260902024545 71 314 0.0 0.0 0.00 0.00 0.00 79 1019.7
20260902024055 71 314 0.0 0.0 0.00 0.00 0.00 79 1019.7
20260902023532 71 314 0.0 0.0 0.00 0.00 0.00 79 1019.6
20260902023036 71 314 0.0 0.0 0.00 0.00 0.00 78 1019.6
20260902022541 71 314 0.0 0.0 0.00 0.00 0.00 78 1019.6
20260902022038 71 314 0.0 0.0 0.00 0.00 0.00 78 1019.6
20260902021600 71 314 0.0 0.0 0.00 0.00 0.00 78 1019.6
20260902021032 72 315 0.0 0.0 0.00 0.00 0.00 78 1019.7
20260902020539 72 314 0.0 0.0 0.00 0.00 0.00 77 1019.5
20260902020045 72 314 0.0 0.0 0.00 0.00 0.00 78 1019.5
20260902015602 72 314 0.0 0.0 0.00 0.00 0.00 78 1019.5
20260902015033 72 314 0.0 0.0 0.00 0.00 0.00 78 1019.5
20260902014538 72 315 0.0 0.0 0.00 0.00 0.00 79 1019.5
20260902014042 72 314 0.0 0.0 0.00 0.00 0.00 79 1019.5
20260902013606 72 315 0.0 0.0 0.00 0.00 0.00 78 1019.5
20260902013043 72 314 0.0 0.0 0.00 0.00 0.00 78 1019.5
20260902012546 72 315 0.0 0.0 0.00 0.00 0.00 78 1019.6
20260902012055 72 315 0.0 0.0 0.00 0.00 0.00 78 1019.6
20260902011534 72 315 0.0 0.0 0.00 0.00 0.00 78 1019.5
20260902011043 72 314 0.0 0.0 0.00 0.00 0.00 79 1019.5
20260902010545 72 315 0.0 0.0 0.00 0.00 0.00 78 1019.5
20260902010033 72 314 0.0 0.0 0.00 0.00 0.00 78 1019.5
20260902005538 72 314 0.0 0.0 0.00 0.00 0.00 78 1019.6
20260902005057 72 314 0.0 0.0 0.00 0.00 0.00 77 1019.6
20260902004557 73 314 0.0 0.0 0.00 0.00 0.00 77 1019.7
20260902004043 73 314 0.0 0.0 0.00 0.00 0.00 77 1019.7
20260902003535 73 314 0.0 0.0 0.00 0.00 0.00 77 1019.6
20260902003045 73 314 0.0 0.0 0.00 0.00 0.00 77 1019.7
20260902002544 73 315 0.0 0.0 0.00 0.00 0.00 77 1019.7
20260902002058 73 315 0.0 0.0 0.00 0.00 0.00 78 1019.7
20260902001534 73 315 0.0 0.0 0.00 0.00 0.00 78 1019.6
20260902001043 73 314 0.0 0.0 0.00 0.00 0.00 77 1019.6
20260902000547 73 314 0.0 0.0 0.00 0.00 0.00 77 1019.7
20260902000035 73 314 0.0 0.0 0.00 0.00 0.00 77 1019.7
20260901235537 73 314 0.0 0.0 0.00 0.00 0.00 77 1019.7
20260901235042 73 314 0.0 0.0 0.00 0.00 0.00 76 1019.6
20260901234542 73 314 0.0 0.0 0.00 0.00 0.00 76 1019.7
20260901234037 74 314 0.0 0.0 0.00 0.00 0.00 75 1019.7
20260901233542 74 314 0.0 0.0 0.00 0.00 0.00 75 1019.7
20260901233032 74 315 0.0 0.0 0.00 0.00 0.00 75 1019.8
20260901232535 74 315 0.0 0.0 0.00 0.00 0.00 75 1019.8
20260901232041 74 314 0.0 0.0 0.00 0.00 0.00 75 1019.8
20260901231540 74 314 0.0 0.0 0.00 0.00 0.00 74 1019.7
20260901231120 74 314 0.0 0.0 0.00 0.00 0.00 74 1019.7
20260901230532 74 314 0.0 0.0 0.00 0.00 0.00 74 1019.7
20260901230042 74 314 0.0 0.0 0.00 0.00 0.00 74 1019.7
20260901225602 74 316 0.0 0.0 0.00 0.00 0.00 74 1019.7
20260901225046 74 317 0.0 0.0 0.00 0.00 0.00 74 1019.8
20260901224550 74 317 0.0 0.0 0.00 0.00 0.00 74 1019.8
20260901224035 75 317 0.0 0.0 0.00 0.00 0.00 73 1019.8
20260901223559 75 317 0.0 0.0 0.00 0.00 0.00 75 1019.7
20260901223118 75 317 0.0 0.0 0.00 0.00 0.00 75 1019.7
20260901222533 75 317 0.0 0.0 0.00 0.00 0.00 73 1019.7
20260901222107 75 317 0.0 0.0 0.00 0.00 0.00 73 1019.7
20260901221604 75 317 0.0 0.0 0.00 0.00 0.00 73 1019.7
20260901221034 75 317 0.0 0.0 0.00 0.00 0.00 73 1019.7
20260901220555 75 317 0.0 0.0 0.00 0.00 0.00 73 1019.7
20260901220109 75 317 0.0 0.0 0.00 0.00 0.00 73 1019.7
20260901215543 75 317 0.0 0.0 0.00 0.00 0.00 73 1019.7
20260901215055 75 317 0.0 0.0 0.00 0.00 0.00 74 1019.7
20260901214557 75 317 0.0 0.0 0.00 0.00 0.00 74 1019.6
20260901214046 75 317 0.0 0.0 0.00 0.00 0.00 73 1019.6
20260901213543 75 317 0.0 0.0 0.00 0.00 0.00 74 1019.6
20260901213035 75 317 0.0 0.0 0.00 0.00 0.00 74 1019.6
20260901212541 75 317 0.0 0.0 0.00 0.00 0.00 74 1019.6
20260901212037 75 317 0.0 0.0 0.00 0.00 0.00 73 1019.6
20260901211611 75 317 0.0 0.0 0.00 0.00 0.00 74 1019.6
20260901211100 75 317 0.0 0.0 0.00 0.00 0.00 74 1019.6
20260901210534 75 317 0.0 0.0 0.00 0.00 0.00 75 1019.6
20260901210042 76 317 0.0 0.0 0.00 0.00 0.00 74 1019.5
20260901205539 76 317 0.0 0.0 0.00 0.00 0.00 73 1019.5
20260901205048 75 317 0.0 0.0 0.00 0.00 0.00 73 1019.5
20260901204536 75 317 0.0 0.0 0.00 0.00 0.00 73 1019.5
20260901204108 75 317 0.0 0.0 0.00 0.00 0.00 73 1019.5
20260901203548 75 317 0.0 0.0 0.00 0.00 0.00 73 1019.5
20260901203046 75 316 0.0 0.0 0.00 0.00 0.00 73 1019.5
20260901202548 76 317 0.0 0.0 0.00 0.00 0.00 73 1019.6
20260901202050 76 317 0.0 4.0 0.00 0.00 0.00 73 1019.5
20260901201548 76 317 0.0 5.0 0.00 0.00 0.00 73 1019.5
20260901201105 76 317 3.0 5.0 0.00 0.00 0.00 73 1019.6
20260901200546 76 318 0.0 0.0 0.00 0.00 0.00 73 1019.5
20260901200035 76 318 0.0 5.0 0.00 0.00 0.00 73 1019.4
20260901195558 76 318 1.0 5.0 0.00 0.00 0.00 73 1019.4
20260901195040 76 318 0.0 4.0 0.00 0.00 0.00 74 1019.4
20260901194544 76 319 0.0 0.0 0.00 0.00 0.00 74 1019.3
20260901194035 76 319 0.0 0.0 0.00 0.00 0.00 74 1019.3
20260901193540 76 319 0.0 4.0 0.00 0.00 0.00 74 1019.3
20260901193049 76 319 1.0 5.0 0.00 0.00 0.00 74 1019.3
20260901192554 76 319 3.0 5.0 0.00 0.00 0.00 74 1019.2
20260901192040 76 320 1.0 4.0 0.00 0.00 0.00 74 1019.1
20260901191541 76 324 0.0 4.0 0.00 0.00 0.00 74 1019.1
20260901191032 77 325 3.0 4.0 0.00 0.00 0.00 74 1019.0
20260901190537 77 325 0.0 3.0 0.00 0.00 0.00 73 1019.0
20260901190038 77 325 0.0 4.0 0.00 0.00 0.00 73 1019.0
20260901185541 77 325 2.0 4.0 0.00 0.00 0.00 73 1019.0
20260901185051 77 335 0.0 0.0 0.00 0.00 0.00 73 1018.9
20260901184555 77 337 0.0 0.0 0.00 0.00 0.00 73 1018.9
20260901184047 77 337 0.0 0.0 0.00 0.00 0.00 72 1018.8
20260901183549 78 341 0.0 0.0 0.00 0.00 0.00 72 1018.7
20260901183039 78 342 0.0 0.0 0.00 0.00 0.00 71 1018.7
20260901182541 78 342 0.0 0.0 0.00 0.00 0.00 71 1018.6
20260901182116 78 349 0.0 0.0 0.00 0.00 0.00 70 1018.5
20260901181534 79 349 0.0 0.0 0.00 0.00 0.00 70 1018.5
20260901181041 79 349 0.0 0.0 0.00 0.00 0.00 70 1018.5
20260901180542 79 349 0.0 0.0 0.00 0.00 0.00 69 1018.4
20260901180034 79 350 0.0 0.0 0.00 0.00 0.00 69 1018.4
20260901175557 80 350 0.0 0.0 0.00 0.00 0.00 69 1018.4
20260901175046 80 350 0.0 0.0 0.00 0.00 0.00 68 1018.3
20260901174548 80 354 0.0 0.0 0.00 0.00 0.00 67 1018.3
20260901174037 81 354 0.0 0.0 0.00 0.00 0.00 67 1018.2
20260901173540 81 354 0.0 0.0 0.00 0.00 0.00 66 1018.2
20260901173057 81 354 0.0 0.0 0.00 0.00 0.00 66 1018.2
20260901172537 81 354 0.0 0.0 0.00 0.00 0.00 65 1018.2
20260901172055 82 354 0.0 0.0 0.00 0.00 0.00 65 1018.2
20260901171533 82 354 0.0 0.0 0.00 0.00 0.00 64 1018.2
20260901171046 82 8 0.0 0.0 0.00 0.00 0.00 62 1018.2
20260901170547 83 107 0.0 0.0 0.00 0.00 0.00 62 1018.1
20260901165545 84 108 0.0 0.0 0.00 0.00 0.00 61 1018.1
20260901165059 84 108 0.0 0.0 0.00 0.00 0.00 59 1018.1
20260901164540 84 108 0.0 0.0 0.00 0.00 0.00 59 1018.2
20260901164100 84 107 0.0 0.0 0.00 0.00 0.00 58 1018.0
20260901163541 84 108 0.0 0.0 0.00 0.00 0.00 58 1018.0
20260901163118 84 108 0.0 0.0 0.00 0.00 0.00 58 1018.0
20260901162534 84 108 0.0 0.0 0.00 0.00 0.00 57 1018.0
20260901162043 84 108 0.0 0.0 0.00 0.00 0.00 57 1018.1
20260901161608 84 106 0.0 0.0 0.00 0.00 0.00 57 1018.1
20260901161044 84 106 0.0 0.0 0.00 0.00 0.00 56 1018.2
20260901160548 85 106 0.0 0.0 0.00 0.00 0.00 56 1018.2
20260901160037 85 105 0.0 1.0 0.00 0.00 0.00 56 1018.2
20260901155541 85 105 0.0 7.0 0.00 0.00 0.00 56 1018.2
20260901155040 85 152 2.0 7.0 0.00 0.00 0.00 56 1018.3
20260901154545 85 129 0.0 5.0 0.00 0.00 0.00 57 1018.2
20260901154034 85 29 1.0 5.0 0.00 0.00 0.00 56 1018.2
20260901153540 85 114 0.0 10.0 0.00 0.00 0.00 56 1018.2
20260901153052 85 127 1.0 10.0 0.00 0.00 0.00 57 1018.2
20260901152542 85 168 0.0 2.0 0.00 0.00 0.00 56 1018.2
20260901152101 85 160 0.0 4.0 0.00 0.00 0.00 56 1018.2
20260901151542 85 156 0.0 4.0 0.00 0.00 0.00 56 1018.3
20260901151038 86 179 0.0 0.0 0.00 0.00 0.00 56 1018.3
20260901150540 85 111 0.0 6.0 0.00 0.00 0.00 56 1018.3
20260901150051 85 152 0.0 6.0 0.00 0.00 0.00 56 1018.3
20260901145550 85 149 1.0 5.0 0.00 0.00 0.00 56 1018.3
20260901145036 85 154 0.0 4.0 0.00 0.00 0.00 56 1018.4
20260901144538 85 79 0.0 8.0 0.00 0.00 0.00 54 1018.4
20260901144058 85 79 0.0 8.0 0.00 0.00 0.00 53 1018.4
20260901143535 85 129 3.0 7.0 0.00 0.00 0.00 53 1018.5
20260901143046 85 85 0.0 5.0 0.00 0.00 0.00 54 1018.5
20260901142550 84 166 0.0 5.0 0.00 0.00 0.00 54 1018.5
20260901142038 84 152 0.0 7.0 0.00 0.00 0.00 55 1018.6
20260901141543 84 118 0.0 8.0 0.00 0.00 0.00 56 1018.7
20260901141034 84 128 2.0 8.0 0.00 0.00 0.00 55 1018.7
20260901140537 84 84 0.0 6.0 0.00 0.00 0.00 55 1018.7
20260901140041 84 137 1.0 5.0 0.00 0.00 0.00 57 1018.7
20260901135542 84 140 0.0 9.0 0.00 0.00 0.00 57 1018.7
20260901135041 84 140 0.0 9.0 0.00 0.00 0.00 58 1018.8
20260901134545 84 142 1.0 11.0 0.00 0.00 0.00 60 1018.7
20260901134055 84 100 1.0 11.0 0.00 0.00 0.00 60 1018.8
20260901133536 84 132 2.0 10.0 0.00 0.00 0.00 59 1018.7
20260901133037 83 21 0.0 8.0 0.00 0.00 0.00 60 1018.7
20260901132541 83 119 4.0 9.0 0.00 0.00 0.00 60 1018.7
20260901132033 83 154 0.0 9.0 0.00 0.00 0.00 60 1018.7
20260901131534 84 120 1.0 11.0 0.00 0.00 0.00 59 1018.8
20260901131036 84 154 1.0 10.0 0.00 0.00 0.00 59 1018.8
20260901130540 84 125 0.0 10.0 0.00 0.00 0.00 60 1018.8
20260901130050 84 153 5.0 10.0 0.00 0.00 0.00 60 1018.9
20260901125533 84 105 0.0 11.0 0.00 0.00 0.00 61 1019.0
20260901125042 83 127 5.0 16.0 0.00 0.00 0.00 60 1019.0
20260901124604 83 160 8.0 16.0 0.00 0.00 0.00 61 1019.0
20260901124034 83 145 6.0 15.0 0.00 0.00 0.00 60 1019.1
20260901123559 84 157 2.0 9.0 0.00 0.00 0.00 60 1019.0
20260901123039 84 104 4.0 9.0 0.00 0.00 0.00 61 1019.1
20260901122542 83 83 3.0 11.0 0.00 0.00 0.00 60 1019.0
20260901122058 83 124 7.0 12.0 0.00 0.00 0.00 59 1019.0
20260901121533 83 151 2.0 11.0 0.00 0.00 0.00 60 1019.1
20260901121041 84 158 6.0 11.0 0.00 0.00 0.00 61 1019.1
20260901120545 84 148 7.0 13.0 0.00 0.00 0.00 60 1019.1